User: anonymous   Login
Location: C.E.K. Mees Observatory
(42.7003°N, 77.4088°W)
Time: 03:37:40
(UTC-05:00)
Language:

Hubble Space Telescope - Orbit

View from above orbital plane
View from above orbital plane
View from above satellite
View from above satellite

Ground track
Ground track

The orbit data is extracted from the following two-line orbital elements,

1 20580U 90037B   18053.64269487  .00000434  00000-0  15635-4 0  9992
2 20580 028.4691 152.2797 0002685 352.7133 145.7619 15.08983221328066
Epoch (UTC): 22 February 2018 15:25:28
Eccentricity: 0.0002685
inclination: 28.4691°
perigee height: 537 km
apogee height: 541 km
right ascension of ascending node: 152.2797°
argument of perigee: 352.7133°
revolutions per day: 15.08983221
mean anomaly at epoch: 145.7619°
orbit number at epoch: 32806

The dashed part of the orbit path shows where the satellite is in the earth's shadow,  

DLR